Simultaneous Nadir Overpasses (SNOs) Predictions

Prediction of SNOs between GOES-16 and AQUA Satellite Orbit:

Table of predicted SNOs for the next 14.0 days since TLE Epoch: 10/7/2023
Index Date Time (GOES-16) GOES-16 Lat,Lon AQUA Lat,Lon Distance(km) Time Diff (sec)
1 10/07/2023 06:46:18 0.03, -75.20 -0.36, -73.26 220.97 80
2 10/07/2023 19:07:04 -0.03, -75.22 -0.68, -78.29 349.45 80
3 10/09/2023 18:55:02 -0.02, -75.23 0.10, -74.70 59.72 80
4 10/11/2023 18:40:19 -0.02, -75.25 0.89, -71.12 470.30 80
5 10/12/2023 07:00:55 0.02, -75.24 0.17, -76.11 97.56 80
6 10/14/2023 06:43:30 0.02, -75.27 -0.59, -72.50 314.59 80
7 10/14/2023 19:04:14 -0.02, -75.28 -0.50, -77.52 254.92 80
8 10/16/2023 18:52:08 -0.02, -75.31 0.29, -73.92 158.31 80
9 10/17/2023 07:12:43 0.02, -75.31 0.78, -78.90 408.63 80
10 10/19/2023 06:55:15 0.02, -75.34 0.02, -75.29 5.29 80
